Estación municipal de Roda de Ter (Osona, Plana de Vic)

Consulta los datos en tiempo real de la estación municipal de Roda de Ter





Hora UTC 21:20
Temperatura 23.9 ºC
Humedad 78.4 %
Pluja 0.0 mm
Velocidad viento 4.4 km/h
Dirección viento WSW

Webcam

Datos diarios 2026-09-03



Hora UTC (invierno +1h; verano +2h)
Temperatura (ºC) Humedad (%) Velocidad viento (km/h) Precipitación (mm)
Hora UTC Aire Humedad Vel. Dir. Vel. Max Dir. Intent. máx 5 min.
00:05 18.8 84.0 0.3 NE 0.3 NE 0.0
00:10 18.7 84.4 1.4 NE 2.8 NE 0.0
00:15 18.5 85.0 1.8 ENE 3.2 ENE 0.0
00:20 18.7 84.6 2.0 ENE 2.8 ENE 0.0
00:25 18.4 85.6 1.1 E 6.0 ESE 0.0
00:30 18.4 86.8 4.3 ESE 6.7 ESE 0.0
00:35 18.4 87.1 3.1 ESE 4.9 ESE 0.0
00:40 18.3 87.4 4.3 ESE 5.6 ESE 0.0
00:45 18.4 86.2 2.0 ESE 3.2 ESE 0.0
00:50 17.9 85.8 1.1 ESE 2.5 ESE 0.0
00:55 17.6 86.5 1.6 ESE 2.8 ESE 0.0
01:00 17.7 86.9 0.2 ESE 2.1 ESE 0.0
01:05 17.5 86.8 0.0 NNE 0.0 ESE 0.0
01:10 17.3 88.1 0.0 NNE 0.0 ESE 0.0
01:15 17.3 88.1 0.0 ESE 1.1 ESE 0.0
01:20 17.7 86.5 0.0 NNE 0.0 ESE 0.0
01:25 17.6 86.2 0.0 NNE 0.0 ESE 0.0
01:30 17.0 87.4 0.0 NNE 0.0 ESE 0.0
01:35 16.8 88.3 0.0 NNE 0.0 ESE 0.0
01:40 16.7 88.0 0.0 ESE 1.1 ESE 0.0
01:45 16.4 88.8 0.0 ESE 1.1 ESE 0.0
01:50 16.4 89.1 0.0 NNE 0.0 ESE 0.0
01:55 16.5 89.3 0.0 NNE 0.0 ESE 0.0
02:00 16.6 89.1 0.0 NNE 0.0 ESE 0.0
02:05 16.8 88.4 0.0 NNE 0.0 ESE 0.0
02:10 16.5 88.6 0.0 NNE 0.0 ESE 0.0
02:15 16.4 89.1 0.0 NNE 0.0 ESE 0.0
02:20 16.3 88.9 0.0 NNE 0.0 ESE 0.0
02:25 16.0 89.5 0.0 NNE 0.0 ESE 0.0
02:30 16.3 90.0 0.0 NNE 0.0 ESE 0.0
02:35 16.3 89.3 0.0 NNE 0.0 ESE 0.0
02:40 16.3 89.1 0.0 NNE 0.0 ESE 0.0
02:45 16.1 89.3 0.0 NNE 0.0 ESE 0.0
02:50 15.9 90.0 0.0 NNE 0.0 ESE 0.0
02:55 16.2 89.7 0.0 NNE 0.0 ESE 0.0
03:00 16.1 89.6 0.0 NNE 0.0 ESE 0.0
03:05 16.0 89.4 0.0 NNE 0.0 ESE 0.0
03:10 15.9 89.7 0.0 NNE 0.0 ESE 0.0
03:15 15.8 89.9 0.0 NNE 0.0 ESE 0.0
03:20 15.6 90.1 0.0 NNE 0.0 ESE 0.0
03:25 15.5 90.6 0.0 NNE 0.0 ESE 0.0
03:30 15.5 90.8 0.0 NNE 0.0 ESE 0.0
03:35 15.4 90.5 0.0 NNE 0.0 ESE 0.0
03:40 15.5 91.0 0.0 NNE 0.0 ESE 0.0
03:45 15.5 90.9 0.0 NNE 0.0 ESE 0.0
03:50 15.5 91.0 0.0 NNE 0.0 ESE 0.0
03:55 15.4 90.9 0.0 NNE 0.0 ESE 0.0
04:00 15.4 91.2 0.3 E 2.1 E 0.0
04:05 15.3 90.5 0.5 E 1.4 E 0.0
04:10 15.0 90.9 0.0 E 1.1 E 0.0
04:15 15.2 91.5 0.0 NNE 0.0 E 0.0
04:20 15.5 91.3 0.0 NNE 0.0 E 0.0
04:25 15.5 90.4 0.0 NNE 0.0 E 0.0
04:30 15.7 90.5 0.2 E 1.8 E 0.0
04:35 15.6 89.8 0.8 E 2.5 E 0.0
04:40 15.1 90.4 0.5 E 2.1 E 0.0
04:45 15.0 91.0 0.0 NNE 0.0 E 0.0
04:50 14.7 90.9 0.0 NNE 0.0 E 0.0
04:55 14.7 91.3 0.0 NNE 0.0 E 0.0
05:00 14.7 91.7 0.0 NNE 0.0 E 0.0
05:05 14.8 91.6 0.0 NNE 0.0 E 0.0
05:10 14.7 91.4 0.1 E 1.4 E 0.0
05:15 14.7 91.5 0.0 E 1.1 E 0.0
05:20 14.8 91.8 1.0 E 2.1 E 0.0
05:25 14.7 91.4 0.0 E 1.1 E 0.0
05:30 14.8 91.6 0.3 E 1.8 E 0.0
05:35 15.2 91.6 0.5 ESE 2.5 ESE 0.0
05:40 15.1 91.0 0.0 ESE 1.1 ESE 0.0
05:45 15.1 90.8 0.0 NNE 0.0 ESE 0.0
05:50 15.0 91.1 0.0 NNE 0.0 ESE 0.0
05:55 15.0 91.3 0.0 NNE 0.0 ESE 0.0
06:00 15.1 91.2 0.0 NNE 0.0 ESE 0.0
06:05 15.4 90.5 0.0 NNE 0.0 ESE 0.0
06:10 15.4 90.1 0.0 NNE 0.0 ESE 0.0
06:15 15.4 90.2 0.0 NNE 0.0 ESE 0.0
06:20 15.6 90.5 0.0 ESE 1.1 ESE 0.0
06:25 15.9 90.0 0.0 NNE 0.0 ESE 0.0
06:30 16.1 89.9 0.0 NNE 0.0 ESE 0.0
06:35 16.4 89.5 0.0 NNE 0.0 ESE 0.0
06:40 16.6 89.3 0.0 ESE 1.1 ESE 0.0
06:45 16.9 88.8 0.0 NNE 0.0 ESE 0.0
06:50 17.2 87.9 0.0 NNE 0.0 ESE 0.0
06:55 17.4 87.3 0.0 ESE 1.4 ESE 0.0
07:00 17.5 87.0 0.1 ESE 1.4 ESE 0.0
07:05 17.7 86.8 0.1 ESE 1.4 ESE 0.0
07:10 18.0 86.4 0.0 ESE 1.1 ESE 0.0
07:15 18.2 85.4 0.4 ESE 2.8 ESE 0.0
07:20 18.5 84.5 0.1 SE 2.8 SE 0.0
07:25 18.7 84.2 1.5 WNW 4.2 SW 0.0
07:30 18.9 83.5 1.0 WNW 2.8 WNW 0.0
07:35 19.0 82.8 1.4 WNW 3.9 WNW 0.0
07:40 19.3 82.3 0.0 WSW 1.1 WSW 0.0
07:45 19.7 81.0 1.6 WSW 5.3 WSW 0.0
07:50 19.7 80.3 0.3 WSW 4.6 WSW 0.0
07:55 20.0 78.4 1.7 WSW 4.6 WSW 0.0
08:00 20.2 77.1 2.2 W 4.9 WSW 0.0
08:05 20.6 75.7 2.4 W 6.4 WSW 0.0
08:10 21.0 73.8 0.2 WSW 3.2 WSW 0.0
08:15 21.5 71.4 1.2 WSW 3.9 WSW 0.0
08:20 22.0 69.1 1.1 WSW 7.4 WSW 0.0
08:25 22.4 67.5 1.5 WSW 7.1 WSW 0.0
08:30 22.7 65.7 0.2 W 1.8 W 0.0
08:35 23.5 63.3 0.2 W 2.1 W 0.0
08:40 23.4 63.7 1.6 W 4.6 W 0.0
08:45 23.7 62.2 0.6 W 2.1 W 0.0
08:50 24.3 61.2 0.1 W 1.4 W 0.0
08:55 24.9 58.8 0.9 W 3.5 W 0.0
09:00 25.6 57.5 0.7 E 3.9 E 0.0
09:05 25.7 56.0 1.3 E 3.9 E 0.0
09:10 26.4 53.4 2.7 E 5.3 E 0.0
09:15 26.7 52.7 1.1 ESE 4.2 ESE 0.0
09:20 27.2 51.6 0.2 ESE 3.2 ESE 0.0
09:25 27.6 49.3 1.8 E 4.6 E 0.0
09:30 27.4 48.1 0.7 E 4.6 ENE 0.0
09:35 28.6 45.1 2.7 E 5.3 E 0.0
09:40 28.8 42.7 3.9 SE 8.8 SE 0.0
09:45 28.4 42.0 1.6 SSE 7.4 SE 0.0
09:50 28.9 41.3 1.5 NW 4.2 WNW 0.0
09:55 29.5 39.0 2.6 NNW 8.5 WNW 0.0
10:00 29.9 37.9 4.2 WNW 9.5 S 0.0
10:05 30.0 36.1 6.0 SW 13.1 S 0.0
10:10 30.3 35.6 5.1 SSW 9.5 S 0.0
10:15 30.3 36.3 5.9 SSE 11.6 SE 0.0
10:20 30.0 36.6 1.2 SW 8.1 S 0.0
10:25 30.3 36.3 4.4 S 9.9 S 0.0
10:30 30.5 36.4 8.0 SE 12.7 SE 0.0
10:35 30.5 36.3 7.1 SE 11.3 S 0.0
10:40 30.8 36.1 1.8 NE 4.9 SSE 0.0
10:45 31.0 36.0 3.5 N 8.1 NNW 0.0
10:50 30.5 36.9 4.3 NW 9.9 NW 0.0
10:55 30.7 36.4 4.1 NW 7.4 WNW 0.0
11:00 31.2 35.7 6.2 ENE 10.9 NE 0.0
11:05 31.3 35.2 5.3 E 10.2 E 0.0
11:10 32.2 33.9 4.9 ENE 10.9 ENE 0.0
11:15 32.1 34.4 7.2 NE 11.6 NE 0.0
11:20 32.5 33.2 5.1 E 10.2 ENE 0.0
11:25 32.2 34.0 4.8 ENE 10.2 N 0.0
11:30 32.0 34.5 6.7 N 13.4 NE 0.0
11:35 32.0 34.6 4.7 N 9.9 NE 0.0
11:40 32.2 33.5 5.0 NW 8.5 NW 0.0
11:45 32.5 33.2 5.0 NNW 13.1 NW 0.0
11:50 33.0 32.7 7.6 N 12.4 NNW 0.0
11:55 33.1 32.5 9.4 N 14.5 NW 0.0
12:00 33.1 32.3 7.6 NNE 13.4 NW 0.0
12:05 33.0 32.2 5.5 NNW 12.4 NW 0.0
12:10 33.4 31.4 6.8 W 14.8 WNW 0.0
12:15 33.4 31.8 10.2 NNW 16.6 NNW 0.0
12:20 33.2 31.4 5.6 N 13.8 N 0.0
12:25 33.2 31.4 8.0 NNW 18.0 N 0.0
12:30 33.9 30.2 4.1 NNE 9.9 NNE 0.0
12:35 33.9 29.5 2.4 E 10.2 SSE 0.0
12:40 34.0 29.2 14.0 SE 19.4 SSE 0.0
12:45 33.9 28.7 10.4 S 19.4 S 0.0
12:50 33.6 29.0 4.6 S 9.5 ESE 0.0
12:55 34.3 28.4 7.3 E 13.4 ESE 0.0
13:00 34.1 28.1 4.9 ESE 11.3 E 0.0
13:05 33.6 28.9 2.0 SSW 6.4 WSW 0.0
13:10 34.8 27.6 3.3 NE 8.1 NNE 0.0
13:15 34.8 27.5 4.3 NNE 13.1 NE 0.0
13:20 34.9 27.6 8.0 NE 18.4 ENE 0.0
13:25 35.7 26.0 6.8 ENE 18.4 NE 0.0
13:30 35.1 26.6 3.3 ESE 9.9 E 0.0
13:35 35.2 26.6 6.7 SSE 15.5 NNW 0.0
13:40 35.3 26.5 8.5 ENE 16.6 ENE 0.0
13:45 35.1 26.5 6.7 NE 12.4 NE 0.0
13:50 34.8 26.3 5.7 E 13.1 SE 0.0
13:55 35.1 25.8 5.1 E 11.3 ESE 0.0
14:00 35.6 25.0 5.9 ESE 13.8 ESE 0.0
14:05 35.0 25.5 2.8 WNW 9.2 S 0.0
14:10 35.6 25.2 6.7 W 10.6 WNW 0.0
14:15 35.7 25.0 6.5 SW 15.5 SSW 0.0
14:20 35.2 26.1 10.6 SSW 19.1 SW 0.0
14:25 35.2 25.6 10.2 SW 20.5 SSW 0.0
14:30 35.5 25.5 5.1 WSW 9.5 W 0.0
14:35 35.8 25.7 9.7 SSW 18.4 S 0.0
14:40 35.3 26.2 13.9 SSW 23.6 SSW 0.0
14:45 35.2 27.2 17.4 SW 32.1 SW 0.0
14:50 35.1 26.9 16.0 SSW 24.7 SW 0.0
14:55 35.1 27.2 16.1 SW 24.7 SW 0.0
15:00 34.7 27.8 15.3 SSW 27.2 SW 0.0
15:05 34.5 29.0 20.2 SW 28.6 SW 0.0
15:10 34.4 28.8 18.1 SW 28.9 SW 0.0
15:15 34.3 29.5 18.8 SW 31.1 SSW 0.0
15:20 34.2 30.8 18.2 SW 34.6 SSW 0.0
15:25 34.0 32.2 18.2 SW 31.1 WSW 0.0
15:30 34.0 32.2 16.6 SSW 29.6 SSW 0.0
15:35 33.5 34.1 17.4 SSW 29.3 SSW 0.0
15:40 33.7 34.4 20.1 SSW 32.5 SSW 0.0
15:45 33.6 35.6 16.7 SSW 27.9 SW 0.0
15:50 33.6 35.4 14.2 SSW 28.2 SSW 0.0
15:55 33.6 36.4 14.9 SSW 25.4 SSW 0.0
16:00 33.2 37.2 15.4 SSW 25.8 SSW 0.0
16:05 33.1 38.1 18.5 S 29.6 S 0.0
16:10 32.7 39.6 20.7 S 28.2 S 0.0
16:15 32.6 40.0 15.0 S 22.9 S 0.0
16:20 32.6 39.8 17.2 SSW 27.5 S 0.0
16:25 32.4 40.7 15.0 SSW 25.4 SSW 0.0
16:30 32.3 40.6 13.4 SSW 23.6 SSW 0.0
16:35 32.1 41.6 15.6 SSW 24.0 S 0.0
16:40 32.0 41.9 14.6 S 22.2 S 0.0
16:45 31.9 42.1 17.4 S 24.3 S 0.0
16:50 31.7 42.8 17.6 S 24.3 SSW 0.0
16:55 31.8 42.4 12.7 SW 21.9 SW 0.0
17:00 31.8 42.5 13.9 SSW 22.6 SW 0.0
17:05 31.6 43.2 13.5 SSW 23.6 S 0.0
17:10 31.4 43.6 11.5 SSW 20.5 SSW 0.0
17:15 31.3 44.0 13.4 S 19.4 SSW 0.0
17:20 31.3 44.2 14.4 S 18.0 S 0.0
17:25 31.2 44.6 12.1 SSW 17.6 S 0.0
17:30 31.1 45.0 13.3 SSW 18.4 S 0.0
17:35 30.9 41.5 16.1 SSE 24.0 SE 0.0
17:40 30.8 40.4 15.3 SSE 21.9 SSE 0.0
17:45 30.5 40.3 12.7 SSE 18.0 SSE 0.0
17:50 30.3 40.8 12.2 SE 16.2 SSE 0.0
17:55 30.2 41.2 8.4 SE 12.4 ESE 0.0
18:00 29.9 42.0 10.9 SSE 18.4 S 0.0
18:05 29.7 42.7 9.9 SSE 13.4 S 0.0
18:10 29.4 43.3 8.1 SE 12.7 S 0.0
18:15 29.2 43.9 6.3 SSE 10.6 S 0.0
18:20 29.0 46.8 8.0 SSW 12.7 SSW 0.0
18:25 28.7 51.4 7.3 SSW 11.6 S 0.0
18:30 28.4 53.4 9.0 SSW 18.7 S 0.0
18:35 28.0 55.6 12.7 SW 18.7 SW 0.0
18:40 27.7 56.8 10.1 SSW 17.6 SSW 0.0
18:45 27.5 57.5 12.4 SW 20.1 SW 0.0
18:50 27.3 58.7 10.9 SSW 18.0 SSW 0.0
18:55 27.1 59.4 9.1 SSW 16.6 S 0.0
19:00 26.9 60.3 12.9 SW 21.5 SSW 0.0
19:05 26.8 61.1 13.0 SW 22.2 SW 0.0
19:10 26.6 62.2 12.5 SSW 25.8 S 0.0
19:15 26.4 63.1 10.0 S 14.5 S 0.0
19:20 26.2 64.2 10.5 SSW 16.2 SW 0.0
19:25 26.1 64.6 10.0 SW 18.7 SSW 0.0
19:30 26.1 65.0 8.9 SSW 14.8 S 0.0
19:35 26.0 65.2 10.7 SW 15.5 SSW 0.0
19:40 26.0 65.6 9.4 SW 15.2 SW 0.0
19:45 25.9 65.9 8.2 SSW 13.8 SSW 0.0
19:50 25.7 66.8 7.4 SW 13.4 SW 0.0
19:55 25.6 67.6 5.5 SW 10.2 WSW 0.0
20:00 25.5 68.0 6.1 SSW 12.4 SW 0.0
20:05 25.3 68.9 4.5 SSW 8.1 SSW 0.0
20:10 25.1 69.9 3.2 SSW 8.5 SSW 0.0
20:15 25.1 70.5 2.3 WSW 6.0 WSW 0.0
20:20 25.0 71.3 2.1 WSW 5.3 WSW 0.0
20:25 24.8 72.1 0.0 WSW 1.1 WSW 0.0
20:30 24.6 73.1 0.0 WSW 1.1 WSW 0.0
20:35 24.6 73.5 3.6 WSW 5.6 W 0.0
20:40 24.5 74.0 3.7 WSW 6.4 WSW 0.0
20:45 24.5 74.4 4.5 SW 9.5 SSW 0.0
20:50 24.5 74.1 5.4 SW 8.8 SW 0.0
20:55 24.5 74.2 7.7 SW 10.6 SW 0.0
21:00 24.5 74.1 5.3 SW 8.8 SW 0.0
21:05 24.5 74.5 6.1 WSW 8.1 WSW 0.0
21:10 24.2 75.9 6.3 W 7.8 WSW 0.0
21:15 24.1 76.9 4.9 W 7.4 W 0.0
21:20 23.9 78.4 4.4 WSW 6.4 WSW 0.0
Máxima 35.8 91.8 20.7 S 34.6 SSW 0.0
Mínima 14.7 25.0
Total 0.0